BST,Max TemperatureF,Mean TemperatureF,Min TemperatureF,Max Dew PointF,MeanDew PointF,Min DewpointF,Max Humidity, Mean Humidity, Min Humidity, Max Sea Level PressureIn, Mean Sea Level PressureIn, Min Sea Level PressureIn, Max VisibilityMiles, Mean VisibilityMiles, Min VisibilityMiles, Max Wind SpeedMPH, Mean Wind SpeedMPH, Max Gust SpeedMPH,PrecipitationIn, CloudCover, Events, WindDirDegrees
2013-4-1,43,38,32,28,25,19,81,61,29,29.91,29.87,29.83,19,9,6,21,12,,0.00,5,,77
2013-4-2,46,38,30,28,21,12,81,51,16,30.08,29.97,29.89,19,7,6,20,13,31,0.00,1,,63
2013-4-3,41,36,31,30,24,19,87,59,29,30.08,30.04,30.01,19,9,6,24,14,31,0.00,6,,54
2013-4-4,38,35,32,30,26,19,87,67,40,30.01,29.95,29.92,16,7,4,21,14,,0.00,7,Rain-Snow,45
2013-4-5,46,40,34,34,25,16,93,56,19,30.12,29.99,29.89,19,9,6,22,16,28,0.00,7,,40
2013-4-6,50,40,30,30,26,21,87,57,23,30.30,30.22,30.12,19,9,6,14,9,,0.00,2,,42
2013-4-7,51,38,25,30,24,18,86,55,16,30.29,30.10,29.89,19,8,6,13,5,,0.00,7,,146
2013-4-8,51,44,38,34,29,25,81,55,29,29.88,29.68,29.56,16,8,6,17,13,,0.00,7,,95
2013-4-9,49,43,37,39,37,33,87,76,57,29.55,29.44,29.39,12,6,2,17,10,,0.04,7,Rain,87
2013-4-10,53,44,35,41,36,33,93,74,47,29.72,29.62,29.44,6,4,2,14,7,,0.28,6,Rain,98
2013-4-11,55,48,42,45,42,39,93,81,49,29.50,29.43,29.36,19,5,2,16,11,,0.01,7,Rain,121
2013-4-12,52,48,43,46,43,41,93,85,56,29.74,29.45,29.30,19,7,3,15,9,,0.08,5,Rain,235
2013-4-13,53,45,38,50,44,37,94,84,63,29.91,29.85,29.77,19,8,4,16,8,,0.08,7,Rain,205
2013-4-14,68,60,51,52,47,45,94,67,38,29.95,29.91,29.89,19,8,4,21,14,28,0.00,5,Rain,217
2013-4-15,61,56,50,46,44,42,82,67,46,30.06,30.02,29.95,19,8,6,17,12,,0.00,5,,222
2013-4-16,62,55,48,47,42,37,87,63,29,30.09,29.97,29.89,19,9,6,21,12,33,0.00,5,Rain,227
2013-4-17,65,56,47,52,47,41,94,71,42,30.09,29.93,29.77,19,7,3,23,11,39,0.00,6,Rain,206
2013-4-18,59,52,46,43,36,30,71,53,27,30.06,29.91,29.80,19,8,6,24,20,38,0.12,4,,252
2013-4-19,56,50,42,40,36,30,87,59,27,30.51,30.29,30.09,17,7,6,15,11,,0.00,6,,336
2013-4-20,58,45,32,37,30,16,93,57,10,30.56,30.48,30.36,12,7,6,12,4,,0.00,1,,107
2013-4-21,58,44,30,39,32,28,93,60,23,30.37,30.16,30.04,18,8,6,15,5,,0.00,5,,250
2013-4-22,59,50,42,46,41,36,87,70,36,30.04,30.00,29.95,19,7,6,17,7,,0.00,6,,231
2013-4-23,69,58,48,48,45,43,87,64,33,30.21,30.10,29.98,19,9,6,12,9,,0.00,3,,271
2013-4-24,67,56,45,54,49,45,93,74,51,30.27,30.22,30.18,19,9,6,15,6,,0.03,6,Rain,253
2013-4-25,72,60,49,54,50,46,94,71,33,30.26,30.13,30.04,19,7,2,18,7,26,0.00,4,,245
2013-4-26,55,48,41,52,38,28,100,67,28,30.04,29.98,29.89,19,7,5,17,9,,0.02,4,Rain,335
2013-4-27,52,44,36,39,34,30,100,70,33,30.10,29.98,29.89,19,8,6,20,8,,0.03,3,Rain-Hail,10
2013-4-28,54,42,30,37,32,27,100,64,24,30.12,30.01,29.89,19,8,6,17,7,29,0.01,7,,243
2013-4-29,58,51,42,43,36,32,87,57,30,30.18,30.02,29.89,19,8,6,15,12,,0.00,5,,284
2013-4-30,58,47,36,39,35,30,87,60,30,30.32,30.25,30.18,19,8,6,15,7,,0.00,2,,38